Le nostre stazioni meteo in Italia

Pubblicità
Il mio iltempo24.it
Torino Venaria, Italia (16060): Temperatura & dewpoint: 15.09.2018 05:00:00 - 21.09.2018 05:00:00 (CEST)Torino Venaria, Italia (16060): velocità del vento: 15.09.2018 05:00:00 - 21.09.2018 05:00:00 (CEST)Torino Venaria, Italia (16060): direzione del vento: 15.09.2018 05:00:00 - 21.09.2018 05:00:00 (CEST)Torino Venaria, Italia (16060): reduced air pressure: 15.09.2018 05:00:00 - 21.09.2018 05:00:00 (CEST)Torino Venaria, Italia (16060): precipitazioni: 15.09.2018 05:00:00 - 21.09.2018 05:00:00 (CEST)
Data & Tempo tt [°C] td [°C] ff [km/h] ff [kn] dd ppp [hPa] rr [mm]
21.09.2018 05:00:00 - - - - - - -
21.09.2018 04:00:00 15,5 15,4 2 1 NO 1015,5 -
21.09.2018 03:00:00 15,6 15,5 2 1 SO 1015,8 -
21.09.2018 02:00:00 16,0 15,9 0 0 N 1016,3 0,0
21.09.2018 01:00:00 16,4 16,3 4 2 ONO 1016,4 -
21.09.2018 00:00:00 17,4 17,3 4 2 NO 1016,4 -
20.09.2018 23:00:00 18,2 17,5 4 2 NO 1016,1 -
20.09.2018 22:00:00 19,4 17,5 4 2 NO 1015,9 -
20.09.2018 21:00:00 20,7 17,4 4 2 NO 1015,5 -
20.09.2018 20:00:00 23,3 17,7 5 3 NO 1015,0 0,0
20.09.2018 19:00:00 25,6 17,7 4 2 NE 1014,5 -
20.09.2018 18:00:00 26,8 17,8 2 1 N 1014,6 -
20.09.2018 17:00:00 28,0 18,9 4 2 O 1014,8 -
20.09.2018 16:00:00 27,7 18,9 4 2 O 1015,1 -
20.09.2018 15:00:00 27,0 18,8 4 2 NNO 1015,8 -
20.09.2018 14:00:00 26,0 18,3 4 2 NNO 1016,6 0,0
20.09.2018 13:00:00 24,9 18,3 4 2 ENE 1017,3 -
20.09.2018 12:00:00 24,0 18,1 2 1 SSE 1017,8 -
20.09.2018 11:00:00 22,0 18,5 2 1 ESE 1018,4 -
20.09.2018 10:00:00 18,1 18,0 2 1 OSO 1018,7 -
20.09.2018 09:00:00 16,1 16,0 0 0 N 1018,8 -
20.09.2018 08:00:00 14,1 14,0 4 2 NO 1019,0 0,0
20.09.2018 07:00:00 13,9 13,8 0 0 N 1018,6 -
20.09.2018 06:00:00 14,4 14,3 2 1 NNO 1018,4 -
20.09.2018 05:00:00 14,9 14,8 2 1 NO 1018,5 -
20.09.2018 04:00:00 15,3 15,2 4 2 NNO 1018,5 -
20.09.2018 03:00:00 15,8 15,7 4 2 NO 1018,6 -
20.09.2018 02:00:00 16,1 16,0 2 1 NO 1018,8 0,0
20.09.2018 01:00:00 16,5 16,4 4 2 ONO 1018,9 -
20.09.2018 00:00:00 17,2 17,1 2 1 NO 1018,9 -
19.09.2018 23:00:00 17,6 17,5 2 1 ONO 1018,2 -
19.09.2018 22:00:00 19,2 18,5 4 2 NO 1017,8 -
19.09.2018 21:00:00 20,2 17,7 4 2 ONO 1017,2 -
19.09.2018 20:00:00 22,2 17,7 8 4 ONO 1016,5 0,0
19.09.2018 19:00:00 25,3 18,9 0 0 N 1016,0 -
19.09.2018 18:00:00 26,4 17,7 2 1 NNE 1015,5 -
19.09.2018 17:00:00 26,8 18,3 4 2 NNE 1015,5 -
19.09.2018 16:00:00 27,0 18,8 4 2 NO 1015,8 -
19.09.2018 15:00:00 27,2 19,0 4 2 SSO 1016,3 -
19.09.2018 14:00:00 26,3 18,4 4 2 E 1016,8 0,0
19.09.2018 13:00:00 25,4 18,5 5 3 SE 1017,5 -
19.09.2018 12:00:00 24,5 17,4 4 2 O 1017,9 -
19.09.2018 11:00:00 22,8 17,6 4 2 E 1018,3 -
19.09.2018 10:00:00 19,4 19,3 2 1 S 1018,3 -
19.09.2018 09:00:00 15,8 15,7 2 1 SSO 1018,5 -
19.09.2018 08:00:00 14,4 14,3 4 2 ONO 1018,6 -
19.09.2018 07:00:00 14,6 14,5 4 2 ONO 1018,1 -
19.09.2018 06:00:00 15,1 15,0 0 0 N 1017,9 -
19.09.2018 05:00:00 16,6 16,5 4 2 NE 1017,6 -
19.09.2018 04:00:00 16,9 16,8 4 2 NO 1017,8 -
19.09.2018 03:00:00 17,9 17,8 8 4 O 1018,2 -
19.09.2018 02:00:00 18,2 18,1 8 4 ENE 1018,5 -
19.09.2018 01:00:00 19,0 18,9 13 7 S 1018,3 -
19.09.2018 00:00:00 19,5 19,4 2 1 O 1017,9 -
18.09.2018 23:00:00 19,3 19,2 2 1 O 1017,6 -
18.09.2018 22:00:00 18,9 18,4 4 2 ONO 1017,2 -
18.09.2018 21:00:00 20,1 18,0 2 1 ONO 1016,7 -
18.09.2018 20:00:00 22,3 17,6 5 3 NO 1015,6 0,0
18.09.2018 19:00:00 24,4 17,3 4 2 NNE 1015,0 -
18.09.2018 18:00:00 25,4 17,5 5 3 NE 1015,0 -
18.09.2018 17:00:00 26,2 17,5 0 0 N 1015,4 -
18.09.2018 16:00:00 26,0 16,5 4 2 SSO 1015,6 -
18.09.2018 15:00:00 25,6 17,5 8 4 N 1016,1 -
18.09.2018 14:00:00 25,0 17,4 5 3 NE 1016,7 0,0
18.09.2018 13:00:00 24,6 18,7 4 2 S 1017,3 -
18.09.2018 12:00:00 23,0 17,8 4 2 E 1018,1 -
18.09.2018 11:00:00 21,4 21,3 2 1 S 1018,6 -
18.09.2018 10:00:00 17,5 17,4 2 1 ONO 1018,9 -
18.09.2018 09:00:00 15,3 15,2 4 2 ONO 1018,9 -
18.09.2018 08:00:00 14,2 14,1 4 2 NO 1018,7 0,0
18.09.2018 07:00:00 13,9 13,8 8 4 ONO 1018,5 -
18.09.2018 06:00:00 14,2 14,1 8 4 NO 1018,5 -
18.09.2018 05:00:00 14,2 14,1 4 2 O 1018,3 -
18.09.2018 04:00:00 14,9 14,8 2 1 OSO 1018,3 -
18.09.2018 03:00:00 15,1 15,0 0 0 N 1018,2 -
18.09.2018 02:00:00 15,2 15,1 2 1 ONO 1018,3 0,0
18.09.2018 01:00:00 15,9 15,8 2 1 N 1018,4 -
18.09.2018 00:00:00 16,3 16,2 0 0 N 1018,6 -
17.09.2018 23:00:00 16,9 16,8 4 2 NO 1018,5 -
17.09.2018 22:00:00 17,9 17,8 2 1 SSO 1018,5 -
17.09.2018 21:00:00 19,5 19,1 2 1 NO 1017,9 -
17.09.2018 20:00:00 21,1 16,8 5 3 NNO 1017,0 -
17.09.2018 19:00:00 23,6 17,5 4 2 NNO 1016,5 -
17.09.2018 18:00:00 23,8 17,5 2 1 NE 1016,5 -
17.09.2018 17:00:00 24,3 18,9 4 2 SE 1016,7 -
17.09.2018 16:00:00 22,7 18,8 2 1 OSO 1017,8 -
17.09.2018 15:00:00 20,9 20,7 2 1 ONO 1019,0 -
17.09.2018 14:00:00 19,4 19,3 4 2 NE 1020,2 -
17.09.2018 13:00:00 18,7 18,6 4 2 E 1020,7 -
17.09.2018 12:00:00 19,2 19,1 5 3 ENE 1020,8 -
17.09.2018 11:00:00 19,5 19,4 2 1 E 1020,5 -
17.09.2018 10:00:00 18,5 18,4 0 0 N 1020,2 -
17.09.2018 09:00:00 17,7 17,6 0 0 N 1019,9 -
17.09.2018 08:00:00 17,2 17,1 2 1 NNE 1019,6 -
17.09.2018 07:00:00 17,1 17,0 4 2 OSO 1019,6 -
17.09.2018 06:00:00 17,5 17,4 2 1 NE 1019,6 -
17.09.2018 05:00:00 17,5 17,4 5 3 O 1019,9 -
17.09.2018 04:00:00 17,6 17,5 4 2 NNE 1019,9 -
17.09.2018 03:00:00 18,4 18,3 9 5 O 1019,9 -
17.09.2018 02:00:00 18,7 18,6 4 2 N 1019,8 0,0
17.09.2018 01:00:00 18,6 18,5 2 1 ONO 1020,3 -
17.09.2018 00:00:00 17,4 17,3 2 1 OSO 1020,3 -
16.09.2018 23:00:00 17,5 17,4 4 2 O 1020,2 -
16.09.2018 22:00:00 17,9 17,8 4 2 ONO 1020,2 -
16.09.2018 21:00:00 20,0 19,1 4 2 NO 1019,7 -
16.09.2018 20:00:00 21,6 17,7 2 1 N 1019,1 -
16.09.2018 19:00:00 23,1 19,0 4 2 N 1018,6 -
16.09.2018 18:00:00 23,1 18,4 5 3 NNE 1018,7 -
16.09.2018 17:00:00 23,0 18,3 9 5 NE 1018,7 -
16.09.2018 16:00:00 22,6 18,5 9 5 NE 1019,2 -
16.09.2018 15:00:00 22,3 19,4 9 5 ENE 1019,5 -
16.09.2018 14:00:00 21,9 19,8 8 4 NE 1020,0 -
16.09.2018 13:00:00 21,1 21,0 9 5 NE 1020,4 -
16.09.2018 12:00:00 20,2 20,1 4 2 NE 1020,8 -
16.09.2018 11:00:00 19,9 19,8 5 3 NE 1020,7 -
16.09.2018 10:00:00 19,6 19,5 5 3 NNE 1020,2 -
16.09.2018 09:00:00 19,1 19,0 4 2 NNE 1020,0 -
16.09.2018 08:00:00 18,4 18,3 5 3 NNE 1019,9 -
16.09.2018 07:00:00 18,7 18,6 4 2 NNO 1019,4 -
16.09.2018 06:00:00 19,0 18,9 5 3 NNE 1019,0 -
16.09.2018 05:00:00 18,9 18,8 0 0 N 1018,8 -
16.09.2018 04:00:00 19,3 19,2 2 1 O 1019,3 -
16.09.2018 03:00:00 19,6 19,5 5 3 NNO 1019,6 -
16.09.2018 02:00:00 19,2 19,1 4 2 NNE 1019,3 -
16.09.2018 01:00:00 19,8 19,7 5 3 NNO 1019,3 -
16.09.2018 00:00:00 20,5 20,4 5 3 ONO 1019,0 -
15.09.2018 23:00:00 20,5 20,4 9 5 O 1018,9 -
15.09.2018 22:00:00 20,8 20,7 4 2 NNO 1018,6 -
15.09.2018 21:00:00 21,2 20,3 4 2 NNO 1018,0 -
15.09.2018 20:00:00 23,2 18,7 5 3 O 1017,2 0,0
15.09.2018 19:00:00 25,3 18,7 8 4 ENE 1016,4 -
15.09.2018 18:00:00 25,4 18,0 5 3 ENE 1016,2 -
15.09.2018 17:00:00 26,0 18,1 9 5 E 1016,1 -
15.09.2018 16:00:00 26,8 18,3 5 3 E 1016,2 -
15.09.2018 15:00:00 26,6 18,9 5 3 E 1016,5 -
15.09.2018 14:00:00 26,1 18,7 9 5 ESE 1016,8 0,0
15.09.2018 13:00:00 25,4 19,2 4 2 S 1017,1 -
15.09.2018 12:00:00 23,1 18,4 8 4 ENE 1017,5 -
15.09.2018 11:00:00 20,5 20,4 4 2 NNO 1017,5 -
15.09.2018 10:00:00 20,7 20,6 2 1 ONO 1017,2 -
15.09.2018 09:00:00 19,9 19,8 2 1 O 1016,9 -
15.09.2018 08:00:00 17,6 17,5 4 2 NNO 1016,6 0,0
15.09.2018 07:00:00 17,3 17,2 2 1 NO 1015,8 -
15.09.2018 06:00:00 17,6 17,5 2 1 NNO 1015,4 -
15.09.2018 05:00:00 17,9 17,8 4 2 ONO 1015,0 -

tt = Temperatura
td = dewpoint
ff = velocità del vento
dd = direzione del vento
ppp = reduced air pressure
rr = precipitazioni

Stazioni seguenti

WeatherPro
AMSI
MeteoEarth